Location: Lake Almanor
(40.2485°N, 121.1442°W)
Time: 16:31:59
(UTC-08:00)

STARLINK-1125 - Pass Details

Date: 04 February 2020
Orbit: 348 x 351 km, 53.0° (Epoch: 17 February)

Event Time Altitude Azimuth Distance (km) Brightness Sun altitude
Rises 18:27:29 0° 290° (WNW) 2,154 7.7 -12.0°
Reaches altitude 10° 18:30:17 10° 260° (W) 1,306 7.1 -12.5°
Maximum altitude 18:31:40 13° 232° (SW) 1,158 6.3 -12.8°
Drops below altitude 10° 18:33:03 10° 203° (SSW) 1,302 6.0 -13.1°
Sets 18:35:51 0° 172° (S) 2,137 6.7 -13.6°
